[[{"header":{"parameterUnit":"m.s-1","parameterCategory":1,"la1":30.2991,"la2":30.254,"lo1":-89.0895,"lo2":-89.0444,"dy":0.0017,"dx":0.0017,"nx":28,"ny":28,"refTime":"2025-02-26T09:00:00:Z","depth":0,"parameterNumber":2,"parameterNumberName":"U-component_of_WINDS"},"data":[0,0,0,0,0,0,0,0,0,0,0,0,0,0,0,0,0,0,0,0,0,0,0,0,0,0,0,0,0,0,0,0,0,0,0,0,0,0,0,0,0,0,0,0,0,0,0,0,0,0,0,0,0,0,0,0,0,0,2.0716,2.0717,0,2.0762,2.0762,2.0763,2.0685,2.0682,2.0679,2.0677,2.0728,2.0732,2.0736,0,0,0,0,0,0,0,0,0,0,0,0,0,2.0566,2.0569,2.0716,2.0717,2.0717,2.0762,2.0762,2.0763,2.0685,2.0682,2.0679,2.0676,2.0727,2.0732,2.0736,0,0,0,0,0,0,0,0,0,0,0,0,0,2.0623,2.057,2.0716,2.0684,2.0681,2.0761,2.0762,2.0763,2.0686,2.0682,2.0678,2.0674,2.0726,2.0731,2.0737,2.0852,0,0,2.0755,2.0757,0,0,0,0,0,0,0,0,2.062,2.0629,2.0688,2.0686,2.0684,2.0713,2.0728,2.0793,2.0687,2.0684,2.0677,2.0672,2.0727,2.0732,2.075,2.0855,2.0857,2.0755,2.0759,2.0761,2.0763,0,0,0,0,0,0,0,2.0616,2.0627,2.0734,2.0689,2.0686,2.0668,2.0672,2.074,2.0728,2.0684,2.0679,2.0685,2.0725,2.0744,2.075,2.0857,2.0755,2.076,2.0764,2.0766,2.1058,2.1063,0,0,0,0,0,0,2.0616,2.0624,2.0733,2.0736,2.0641,2.0674,2.0678,2.0708,2.0727,2.0725,2.0688,2.0681,2.0737,2.0744,2.0752,2.0887,2.0761,2.0766,2.077,2.1054,2.1059,2.1064,0,0,0,0,0,0,2.0613,2.0626,2.0731,2.0678,2.069,2.0681,2.0715,2.0711,2.073,2.0729,2.0727,2.071,2.0734,2.0744,2.0827,2.0888,2.0769,2.0774,2.1049,2.1056,2.1062,2.116,0,0,0,0,0,0,2.0609,2.0626,2.0668,2.068,2.0693,2.0805,2.0718,2.0715,2.074,2.0731,2.0749,2.0749,2.0731,2.0819,2.0833,2.0894,2.0779,2.1044,2.1052,2.106,2.1151,2.1169,2.1184,0,0,0,0,0,2.0604,2.0695,2.0671,2.0685,2.0746,2.0808,2.0816,2.0793,2.0745,2.0788,2.0788,2.0748,2.0879,2.0828,2.0843,2.0907,2.104,2.105,2.1059,2.1144,2.1165,2.1184,0,0,0,0,0,0,2.0693,2.0696,2.0669,2.0767,2.0788,2.0795,2.0849,2.0817,2.0853,2.0843,2.0814,2.0819,2.0909,2.0916,2.0859,2.1019,2.0952,2.0965,2.1011,2.1031,2.1047,2.1044,2.0784,0,0,0,0,0,2.0724,2.0773,2.0773,2.086,2.0871,2.0859,2.0885,2.0865,2.0886,2.0895,2.09,2.0924,2.097,2.1001,2.1044,2.1152,2.1155,2.1203,2.1219,2.1233,2.1245,2.1302,2.1323,2.1096,2.1096,2.1096,0,0,2.0789,2.0797,2.083,2.0878,2.0892,2.0944,2.0867,2.0925,2.0964,2.0904,2.0983,2.0988,2.1012,2.1108,2.1151,2.1117,2.1308,2.1245,2.1256,2.1261,2.1314,2.1336,2.1355,2.1103,2.1101,2.11,0,0,2.0934,2.0944,2.1017,2.1032,2.1053,2.1044,2.1061,2.1073,2.1074,2.1152,2.1108,2.1154,2.1234,2.1253,2.1273,2.1424,2.1389,2.1439,2.1525,2.1581,2.1599,2.1615,2.1668,2.1688,2.1451,2.1451,2.1451,0,2.1012,2.1087,2.1059,2.112,2.1143,2.1089,2.1163,2.1179,2.1214,2.1232,2.1193,2.1292,2.1305,2.1404,2.1441,2.1459,2.1478,2.1437,2.1599,2.1614,2.1628,2.1679,2.1699,2.1457,2.1456,2.1455,2.1455,0,2.1183,2.1236,2.1292,2.1325,2.1354,2.1422,2.1404,2.1437,2.1415,2.141,2.149,2.1503,2.1547,2.1569,2.1549,2.1666,2.1644,2.1603,2.1534,2.1656,2.1704,2.1723,2.1465,2.1463,2.1461,2.146,0,0,2.1385,2.1401,2.1422,2.1436,2.1455,2.1496,2.1561,2.1602,2.1631,2.1657,2.1711,2.178,2.1741,2.1764,2.1745,2.1795,2.1913,2.1747,2.1747,2.1777,2.2043,2.2074,2.2097,2.189,2.1893,2.1896,2.2041,0,2.1529,2.1639,2.1615,2.1724,2.1773,2.1723,2.178,2.1798,2.1796,2.1837,2.1835,2.1884,2.1829,2.1842,2.1889,2.1889,2.1966,2.1878,2.1941,2.1944,2.1936,2.2121,2.2155,2.229,2.2059,2.2062,2.2064,0,2.1711,2.1741,2.1855,2.1865,2.1885,2.1936,2.1972,2.2012,2.2032,2.2027,2.2052,2.2023,2.2089,2.202,2.211,2.2051,2.2075,2.2079,2.2084,2.2089,2.2011,2.2131,2.2333,2.2353,2.2093,2.2091,2.2089,0,2.1846,2.1917,2.1993,2.2007,2.2021,2.2058,2.2066,2.2082,2.2108,2.214,2.2157,2.2196,2.2218,2.225,2.2233,2.2184,2.2327,2.2256,2.2325,2.2325,2.2357,2.2355,2.2565,2.2373,2.2373,2.2373,2.2372,0,2.2009,2.208,2.2054,2.2102,2.218,2.2153,2.2232,2.2234,2.2249,2.2296,2.2256,2.2302,2.2276,2.2321,2.2308,2.2385,2.2395,2.2393,2.2389,2.2397,2.2397,2.2412,2.2402,2.2378,2.2377,2.2376,2.2375,0,2.2174,2.2159,2.224,2.2246,2.2249,2.2307,2.2313,2.2358,2.2351,2.2412,2.2425,2.2416,2.2466,2.2452,2.2507,2.2498,2.2595,2.2579,2.2588,2.2584,2.2653,2.2646,2.288,2.2909,2.2699,2.2701,2.2702,0,2.2278,2.2332,2.2343,2.2371,2.2382,2.2428,2.2454,2.2429,2.2458,2.2484,2.2526,2.2572,2.2607,2.2689,2.2689,2.273,2.2715,2.2794,2.2721,2.2727,2.2715,2.2712,2.2717,2.2808,2.2811,2.2813,2.2814,0,2.2465,2.2455,2.2492,2.2528,2.256,2.2587,2.2611,2.2637,2.2614,2.2648,2.2698,2.2725,2.278,2.2826,2.2864,2.2873,2.2841,2.2837,2.2855,2.2863,2.2866,2.2865,2.2627,2.2832,2.283,2.2829,2.2828,2.2827,2.2602,2.2647,2.2662,2.2706,2.2721,2.2744,2.2785,2.2784,2.2824,2.2865,2.2849,2.2906,2.2925,2.2971,2.2986,2.3031,2.3001,2.3027,2.3034,2.304,2.3049,2.2859,2.3038,2.3037,2.3037,2.3036,2.3036,0,2.2786,2.2793,2.2833,2.2867,2.2901,2.2866,2.289,2.2922,2.2972,2.2991,2.3026,2.3083,2.3128,2.313,2.3172,2.3208,2.3194,2.3219,2.3216,2.3219,2.3073,2.3053,2.323,2.323,2.323,2.323,2.323,2.323,2.2886,2.2959,2.2951,2.3032,2.3039,2.3093,2.311,2.3131,2.3146,2.3211,2.3247,2.3248,2.3261,2.3303,2.3342,2.3342,2.3359,2.3391,2.3385,2.3249,2.3229,2.3211,2.3192,2.3395,2.3395,2.3527,2.3528,2.3529]},{"header":{"parameterUnit":"m.s-1","parameterCategory":1,"la1":30.2991,"la2":30.254,"lo1":-89.0895,"lo2":-89.0444,"dy":0.0017,"dx":0.0017,"nx":28,"ny":28,"refTime":"2025-02-26T09:00:00:Z","depth":0,"parameterNumber":3,"parameterNumberName":"V-component_of_WINDS"},"data":[0,0,0,0,0,0,0,0,0,0,0,0,0,0,0,0,0,0,0,0,0,0,0,0,0,0,0,0,0,0,0,0,0,0,0,0,0,0,0,0,0,0,0,0,0,0,0,0,0,0,0,0,0,0,0,0,0,0,1.2296,1.2297,0,1.2388,1.2389,1.239,1.2385,1.2383,1.2382,1.2381,1.2473,1.2477,1.248,0,0,0,0,0,0,0,0,0,0,0,0,0,1.2111,1.2115,1.2295,1.2297,1.2298,1.2388,1.2389,1.239,1.2385,1.2383,1.2382,1.238,1.2472,1.2476,1.2481,0,0,0,0,0,0,0,0,0,0,0,0,0,1.2196,1.2116,1.2295,1.2306,1.2308,1.2387,1.2389,1.2391,1.2385,1.2383,1.2381,1.2379,1.247,1.2476,1.2481,1.2556,0,0,1.2498,1.2501,0,0,0,0,0,0,0,0,1.2191,1.2203,1.2303,1.2305,1.2308,1.2373,1.2358,1.2446,1.2386,1.2356,1.2381,1.2378,1.2441,1.2449,1.2471,1.256,1.2564,1.2499,1.2502,1.2505,1.2506,0,0,0,0,0,0,0,1.2185,1.2199,1.2332,1.2305,1.2307,1.2305,1.2315,1.2375,1.2408,1.2358,1.2358,1.2369,1.2442,1.2465,1.2473,1.2565,1.2499,1.2504,1.2507,1.2509,1.2719,1.2721,0,0,0,0,0,0,1.2177,1.2194,1.2329,1.2335,1.2243,1.231,1.2321,1.2354,1.2408,1.2414,1.2371,1.2368,1.2457,1.2466,1.2476,1.2566,1.2505,1.251,1.2513,1.2717,1.2719,1.2722,0,0,0,0,0,0,1.2174,1.219,1.2325,1.2264,1.2281,1.2315,1.2352,1.2357,1.238,1.2417,1.2423,1.2389,1.2456,1.2468,1.2536,1.2569,1.2512,1.2517,1.2714,1.2717,1.272,1.2747,0,0,0,0,0,0,1.2168,1.2188,1.2218,1.2265,1.2285,1.2385,1.2354,1.236,1.239,1.2388,1.2436,1.2442,1.2455,1.2528,1.2541,1.2576,1.2522,1.2711,1.2715,1.2719,1.2743,1.2751,1.2757,0,0,0,0,0,1.2162,1.2222,1.2219,1.2236,1.2323,1.2387,1.2398,1.2413,1.2393,1.2422,1.2446,1.244,1.2563,1.2535,1.255,1.2587,1.2709,1.2714,1.2719,1.274,1.2749,1.2757,0,0,0,0,0,0,1.2177,1.2228,1.2226,1.2303,1.2341,1.2386,1.2423,1.2422,1.2466,1.2462,1.2477,1.2488,1.2556,1.2578,1.2545,1.2661,1.2633,1.2642,1.2644,1.2653,1.266,1.2653,1.2526,0,0,0,0,0,1.2189,1.2238,1.228,1.2343,1.2362,1.239,1.2418,1.2426,1.2465,1.2481,1.251,1.2547,1.2594,1.2625,1.267,1.2746,1.2756,1.2779,1.2786,1.2791,1.2798,1.2839,1.2849,1.2738,1.2738,1.2738,0,0,1.2215,1.2249,1.2279,1.2347,1.2377,1.2426,1.2403,1.2456,1.2492,1.2489,1.2555,1.2576,1.2619,1.2691,1.2724,1.2711,1.2831,1.2798,1.2802,1.2806,1.2845,1.2856,1.2865,1.2741,1.2741,1.274,0,0,1.2288,1.2319,1.2375,1.2405,1.2451,1.2468,1.2482,1.2527,1.2541,1.2608,1.2606,1.2648,1.2729,1.2759,1.2785,1.2867,1.2863,1.2881,1.2918,1.2957,1.2966,1.2974,1.3002,1.3013,1.2888,1.2888,1.2888,0,1.2315,1.2389,1.2404,1.2457,1.2487,1.2486,1.2542,1.257,1.2628,1.2648,1.2633,1.2734,1.2762,1.2841,1.2861,1.2882,1.2897,1.2876,1.2964,1.2972,1.2979,1.3007,1.3017,1.289,1.289,1.2889,1.2889,0,1.2419,1.2471,1.251,1.2567,1.2601,1.2655,1.2677,1.2709,1.2713,1.2732,1.2798,1.2832,1.2884,1.2903,1.2908,1.2982,1.2972,1.296,1.2933,1.2991,1.3017,1.3028,1.2893,1.2892,1.2891,1.2891,0,0,1.2505,1.2568,1.2582,1.2607,1.2657,1.2696,1.275,1.2801,1.2828,1.2867,1.2912,1.2979,1.2968,1.2997,1.3005,1.304,1.3101,1.3023,1.3025,1.3037,1.3184,1.3193,1.3205,1.3099,1.3101,1.3102,1.318,0,1.2583,1.2679,1.2693,1.2777,1.2825,1.2823,1.287,1.2904,1.2923,1.2964,1.2984,1.3031,1.3013,1.3031,1.3065,1.3087,1.3131,1.3081,1.314,1.3142,1.313,1.3218,1.3229,1.33,1.319,1.3192,1.3193,0,1.2687,1.2729,1.2818,1.286,1.288,1.2922,1.2969,1.3009,1.3048,1.3058,1.309,1.3094,1.3148,1.3118,1.3192,1.3157,1.3181,1.3196,1.3199,1.3205,1.3171,1.3227,1.3323,1.3334,1.321,1.3208,1.3207,0,1.274,1.2819,1.2883,1.2904,1.2955,1.2984,1.3006,1.3042,1.3072,1.3112,1.3131,1.3177,1.3202,1.3237,1.3252,1.3229,1.3325,1.3296,1.3334,1.3334,1.3355,1.3354,1.3457,1.337,1.337,1.337,1.337,0,1.2825,1.288,1.2907,1.2946,1.3007,1.3021,1.308,1.3101,1.3134,1.3176,1.3177,1.3216,1.3233,1.3275,1.3286,1.3345,1.3357,1.3366,1.3368,1.3366,1.3365,1.3383,1.3378,1.3373,1.3372,1.3372,1.3371,0,1.2896,1.2916,1.2985,1.3027,1.3039,1.3082,1.3117,1.3154,1.3171,1.3224,1.3237,1.3264,1.3313,1.3331,1.339,1.3398,1.3466,1.3464,1.3453,1.3454,1.3491,1.3487,1.3609,1.3626,1.3528,1.3529,1.353,0,1.2949,1.2991,1.3037,1.3066,1.3089,1.3135,1.3165,1.318,1.321,1.3256,1.3288,1.3336,1.3376,1.3454,1.3478,1.3522,1.3522,1.3561,1.3529,1.3525,1.3522,1.352,1.3524,1.3568,1.3569,1.357,1.357,0,1.3041,1.3049,1.3092,1.3139,1.3175,1.3212,1.3248,1.3271,1.3291,1.3325,1.3375,1.3406,1.3466,1.3514,1.356,1.3581,1.3579,1.358,1.3591,1.359,1.3582,1.3586,1.347,1.3578,1.3577,1.3576,1.3576,1.3576,1.3105,1.3142,1.318,1.3227,1.3256,1.3289,1.3326,1.3348,1.339,1.3441,1.3446,1.35,1.3535,1.3597,1.362,1.3661,1.365,1.3667,1.3671,1.3675,1.3677,1.3575,1.3669,1.3669,1.3669,1.3669,1.3669,0,1.3197,1.3221,1.3265,1.3315,1.3352,1.3347,1.3386,1.3417,1.3465,1.3499,1.3538,1.3594,1.364,1.3667,1.3713,1.3741,1.374,1.3752,1.375,1.3755,1.3684,1.367,1.3751,1.3751,1.3751,1.3751,1.3751,1.3751,1.3249,1.3311,1.3323,1.3398,1.3422,1.3475,1.3497,1.3528,1.3555,1.3618,1.3657,1.3674,1.3705,1.3752,1.3794,1.38,1.3817,1.3829,1.3835,1.3769,1.376,1.3752,1.3739,1.3833,1.3833,1.3902,1.3903,1.3903]}]]